Location: Haslach
(48.2777°N, 8.0894°E)
Time: 22:18:43
(UTC+00:00)

Daily predictions for brighter satellites

Satellite Brightness Start Highest point End
(mag) Time Altitude Azimuth Time Altitude Azimuth Time Altitude Azimuth
Cosmos 1437 Rocket 4.2 17:28:03 10° SE 17:30:20 16° E 17:32:37 10° NE
ASTEX 1 3.5 17:26:36 10° NNE 17:31:31 55° E 17:36:25 10° S
HJ-1C 4.4 17:30:01 10° ESE 17:32:33 23° ENE 17:35:05 10° NNE
Cosmos 1741 Rocket 4.1 17:27:42 10° S 17:32:54 62° ESE 17:38:06 10° NNE
CZ-4C R/B 3.9 17:30:35 10° N 17:34:50 70° WNW 17:38:53 10° SSW
USA 267 3.3 17:29:45 10° ESE 17:36:20 90° E 17:42:56 10° NW
Cosmos 1626 3.5 17:32:57 10° NNW 17:36:25 43° W 17:39:51 10° SSW
Cosmos 1814 Rocket 4.2 17:31:49 10° NNW 17:36:57 51° ENE 17:42:00 10° SE
SL-4 R/B 2.3 17:32:52 10° WNW 17:37:15 87° SSW 17:41:54 10° ESE
Cosmos 2084 Rocket 4.3 17:36:40 10° NNW 17:40:00 28° NE 17:43:23 10° E
Cosmos 1805 3.2 17:37:47 10° S 17:41:39 74° E 17:45:32 10° NNE
Cosmos 2227 4.3 17:37:10 10° NNW 17:42:43 56° ENE 17:48:14 10° SE
Cosmos 1242 Rocket 2.7 17:39:22 10° SSW 17:42:55 78° W 17:46:28 10° N
Okean-O 4.3 17:43:01 10° E 17:45:38 16° ENE 17:48:17 10° NNE
ISS -2.2 17:44:01 10° W 17:47:07 33° SW 17:50:11 10° SSE
Cosmos 1697 Rocket 3.8 17:42:39 10° SW 17:48:05 48° NW 17:53:33 10° NNE
CZ-4 R/B 2.1 17:44:20 10° SE 17:48:07 35° ENE 17:51:56 10° N
BREEZE M DEB (TANK) 4.1 17:44:11 10° SSW 17:50:25 23° SSE 17:53:02 12° ESE
Cosmos 1908 Rocket 4.0 17:49:23 10° SSE 17:53:22 36° E 17:57:20 10° NNE
SL-14 R/B 3.3 17:49:47 10° N 17:53:46 85° W 17:57:46 10° S
IRIDIUM 103 4.5 17:48:46 10° SSE 17:53:48 52° E 17:58:52 10° NNE
Meteor 2-21 4.4 17:47:59 10° S 17:53:54 62° E 17:59:52 10° NNE
OBJECT-B 2.4 17:54:14 12° ENE 17:54:14 12° ENE 17:55:06 10° NE
MOS 1-B 4.3 17:48:22 10° SSE 17:54:10 78° ENE 18:00:00 10° NNW
Cosmos 1733 3.5 17:51:27 10° SSW 17:55:10 69° W 17:58:55 10° N
Cosmos 2360 Rocket 3.6 17:52:21 10° SE 17:55:33 16° E 17:58:46 10° ENE
Cosmos 1809 Rocket 4.4 17:52:28 10° S 17:58:32 81° E 18:04:39 10° NNE
Cosmos 1766 3.2 17:57:38 10° S 18:01:29 60° E 18:05:24 10° NNE
Cosmos 1674 Rocket 3.6 17:58:35 10° N 18:03:00 86° W 18:07:27 10° S
Meteor 2-10 4.2 17:57:27 10° S 18:03:05 90° ESE 18:08:34 10° NNE
Cosmos 1025 Rocket 4.1 18:01:59 10° NNE 18:05:35 25° ENE 18:07:56 16° ESE
YAOGAN 1 2.5 18:02:01 10° SSE 18:06:20 74° ENE 18:10:39 10° N
ATLAS 2AS CENTAUR R/B 4.5 18:01:14 10° WNW 18:07:06 24° N 18:12:43 10° NE
Cosmos 968 Rocket 3.7 18:03:11 10° S 18:08:09 46° ESE 18:13:09 10° NNE
Okean O Rocket 1.5 18:05:51 10° SSE 18:10:10 68° ENE 18:14:33 10° N
IRIDIUM 106 4.2 18:06:52 10° S 18:12:03 74° E 18:17:16 10° N
Lacrosse 4 Rocket 2.5 18:09:47 10° SSE 18:12:58 22° ESE 18:13:56 20° E
Meteor 2-5 Rocket 3.8 18:09:55 10° N 18:15:22 54° ENE 18:20:47 10° SSE
Nadezhda 4 Rocket 4.0 18:09:08 10° S 18:15:26 75° E 18:21:44 10° NNE
Meteor 1-15 Rocket 4.2 18:11:43 10° S 18:17:10 60° E 18:22:39 10° NNE
CSL-04 Rocket 4.2 18:13:27 14° SE 18:17:31 37° ENE 18:22:28 10° N
Cosmos 2285 Rocket 4.1 18:15:31 10° NNW 18:21:54 87° WSW 18:28:18 10° SSE
USA 186 2.7 18:22:41 29° E 18:23:16 31° ENE 18:26:18 10° N
Cosmos 1726 2.8 18:20:07 10° SSW 18:23:42 55° WNW 18:27:18 10° N
Cosmos 2322 Rocket 2.6 18:18:48 10° S 18:24:01 39° ESE 18:29:16 10° NE
Cosmos 1470 2.8 18:24:37 10° S 18:28:19 48° E 18:32:03 10° NNE
CZ-4B R/B 3.6 18:23:23 10° S 18:28:43 66° WSW 18:34:13 10° NNW
Cosmos 1980 Rocket 3.3 18:24:49 10° SW 18:30:11 45° NW 18:35:35 10° NNE
Cosmos 1975 Rocket 3.3 18:26:31 10° N 18:30:47 45° ENE 18:33:08 23° SE
ARGOS Delta rocket 4.3 18:25:50 10° N 18:31:06 69° WNW 18:36:02 10° SSW
Cosmos 2292 Rocket 3.5 18:33:24 10° S 18:38:32 82° E 18:42:25 10° N
USA 215 3.7 18:37:02 10° NE 18:43:29 61° NNW 18:49:53 10° WSW
IRS-1C Rocket 4.2 18:43:42 27° SE 18:46:22 53° ENE 18:51:29 10° N
Cosmos 1844 Rocket 2.7 18:44:34 10° NNW 18:50:15 67° ENE 18:52:59 31° SE
SL-16 R/B 2.1 18:48:31 10° SSW 18:54:12 86° ESE 18:59:55 10° NNE
Landsat 5 3.5 18:51:09 10° NNE 18:55:39 63° ESE 19:00:02 10° S
Cosmos 1092 Rocket 3.9 18:50:37 10° S 18:56:56 86° E 19:03:14 10° N
Resurs 01 Rocket 2.8 19:01:19 28° NE 19:01:19 28° NE 19:04:20 10° N
Cosmos 836 Rocket 4.4 18:56:18 10° NNW 19:01:38 74° ENE 19:03:34 40° SE
SJ-6B 2.6 19:02:07 61° SSE 19:02:45 89° ENE 19:06:35 10° NNW
Cosmos 2278 Rocket 3.8 19:01:09 10° N 19:05:07 19° NE 19:05:41 19° NE
H-2A R/B 3.6 19:07:12 28° NNE 19:07:12 28° NNE 19:09:28 10° N
Cosmos 1437 Rocket 3.9 19:02:34 10° SW 19:06:08 41° WNW 19:09:43 10° N
Meteor 1-24 Rocket 4.0 19:05:25 10° NNW 19:10:40 63° W 19:15:58 10° S
Resurs 1-3 3.4 19:11:26 68° ESE 19:11:52 75° ENE 19:16:15 10° N
MetOp-A 4.4 19:17:19 35° NNE 19:17:19 35° NNE 19:19:55 10° N
SL-4 R/B 3.9 19:12:38 10° W 19:16:26 27° SW 19:17:51 23° SSW
Cosmos 921 Rocket 4.5 19:12:51 10° N 19:15:35 26° NNE 19:15:35 26° NNE
Cosmos 2084 Rocket 4.0 19:15:49 10° NW 19:19:30 45° SW 19:19:51 44° SW
Okean-O 2.7 19:20:29 49° S 19:21:34 72° WSW 19:26:01 10° NNW
CZ-4 R/B 3.6 19:19:38 10° SSW 19:23:07 25° W 19:26:36 10° NW
Cosmos 1486 Rocket 3.9 19:18:14 10° SSW 19:23:34 79° ESE 19:28:55 10° NNE
OBJECT-B 3.3 19:24:56 17° NW 19:24:56 17° NW 19:25:50 10° NW
Cosmos 1844 3.6 19:19:10 10° NNW 19:24:46 82° WSW 19:26:12 51° SSE
IGS 5A 3.9 19:24:38 46° SSW 19:25:30 57° W 19:29:37 10° NNW
DNEPR-1 R/B 3.8 19:23:08 10° SW 19:27:52 90° NNW 19:30:36 31° NE
S3M 4.0 19:23:43 10° N 19:29:52 57° ENE 19:30:10 57° E
Cosmos 1300 Rocket 3.7 19:30:15 61° SW 19:30:50 71° W 19:35:12 10° N
Cosmos 773 Rocket 4.1 19:25:57 10° NNW 19:31:00 61° NE 19:31:00 61° NE
Meteor 1-21 Rocket 4.3 19:26:32 10° N 19:31:34 54° NE 19:31:34 54° NE
Cosmos 2360 Rocket 2.1 19:33:04 10° SSW 19:38:44 89° WNW 19:44:25 10° NNE
Cosmos 1417 Rocket 4.3 19:44:09 10° N 19:50:19 87° W 19:51:04 71° S
Lacrosse 4 Rocket 2.7 19:47:21 10° SW 19:50:17 37° W 19:50:17 37° W
ATLAS 2AS CENTAUR R/B 3.9 19:54:02 10° NW 20:00:23 31° NNE 20:01:35 29° NE
MOS 1 4.3 20:01:33 78° WNW 20:01:33 78° WNW 20:06:59 10° NNW
SPOT 1/Viking Rocket 4.0 20:07:53 56° NW 20:07:53 56° NW 20:12:05 10° NNW
Cosmos 2322 Rocket 3.4 20:02:41 10° WSW 20:08:04 41° NW 20:13:27 10° NNE
NOSS 3-4 (A) 3.7 20:05:11 10° NW 20:12:03 75° NE 20:12:04 75° NE
NOSS 3-4 (C) 3.7 20:05:18 10° NW 20:12:09 75° NE 20:12:09 75° NE
Ariane Rocket 4.1 20:16:26 39° NNW 20:16:26 39° NNW 20:19:36 10° NNW
Aureole 1 Rocket 4.4 20:18:36 10° SW 20:25:50 62° WNW 20:31:32 10° NNE
USA 215 4.1 20:24:15 36° NNE 20:25:54 42° N 20:31:57 10° WNW
USA 281 3.8 20:27:40 45° NNE 20:27:40 45° NNE 20:32:44 10° NNW
Resurs 01 Rocket 3.9 20:38:52 22° NW 20:38:52 22° NW 20:40:55 10° NNW
SL-16 R/B 4.4 20:34:44 10° W 20:39:04 22° NW 20:43:25 10° N
Terra 4.2 20:42:43 16° N 20:42:43 16° N 20:43:45 10° N
Cosmos 1943 Rocket 4.1 20:36:40 10° NNW 20:38:59 20° N 20:38:59 20° N
Cosmos 2278 Rocket 3.6 20:44:27 10° NNW 20:47:32 33° NNW 20:47:32 33° NNW
Cosmos 2369 Rocket 4.5 20:56:49 10° N 20:58:48 16° NNE 20:58:48 16° NNE
Cosmos 2333 Rocket 4.5 21:18:31 18° N 21:18:31 18° N 21:20:12 10° NNE
Cosmos 2360 Rocket 4.4 21:19:21 10° W 21:23:33 21° NW 21:27:45 10° N
ATLAS 2AS CENTAUR R/B 4.1 21:45:15 10° NW 21:49:00 33° NW 21:49:00 33° NW
